Vorticity
10 7 4 6 8 13 9 7 7 7 5 -1 1 -1 -0 2 1 0 -1 1 6 18 29 42 45 38 33 30 31 30 28 26 29 30 28 24 28 30
5 5 6 12 11 9 7 6 4 4 5 1 -0 2 2 2 2 5 21 38 42 41 35 34 28 26 32 32 26 23 19 17 18 20 19 20 21 22
4 7 13 10 7 7 7 5 3 2 5 2 2 4 3 10 31 40 34 32 36 43 44 35 38 38 37 41 42 41 38 34 29 25 20 16 14 12
6 14 8 9 8 4 1 -2 2 3 4 5 4 11 29 43 30 37 49 47 36 22 15 14 15 15 17 18 20 24 27 31 31 28 28 25 24 22
13 11 9 5 1 0 4 5 3 6 5 11 24 39 36 40 56 38 26 16 24 26 17 11 7 10 10 11 13 13 14 18 19 20 17 19 25 26
10 5 3 3 7 8 7 7 3 8 22 31 34 37 49 36 27 27 20 3 4 11 17 15 23 23 24 24 19 21 24 22 22 16 10 24 27 27
2 -0 3 7 7 6 8 7 18 29 30 32 44 39 25 24 5 8 28 29 23 15 16 18 8 9 8 6 9 5 6 25 28 8 12 19 25 28
5 0 -3 -1 2 3 10 27 37 31 35 44 23 23 12 6 28 21 9 16 17 8 20 21 13 14 16 20 16 14 3 14 31 20 15 17 13 11
-6 -3 -3 1 1 11 32 34 32 37 30 21 22 1 17 21 12 16 16 15 8 5 13 15 13 19 20 21 21 31 10 14 20 23 17 5 9 12
-3 -3 6 3 12 31 33 34 44 20 24 17 0 23 16 16 6 16 12 12 13 7 12 16 15 27 21 22 27 8 10 32 32 25 11 3 7 10
1 7 5 3 32 38 37 44 19 27 5 7 21 7 14 6 12 10 12 10 16 5 15 15 12 29 18 21 10 28 27 15 8 5 4 -8 -9 18
-1 4 8 43 33 34 38 19 26 -2 18 20 8 11 6 8 8 9 5 9 8 16 18 16 19 19 12 28 7 23 3 -0 8 9 -6 5 10 6
3 15 47 32 33 32 19 26 -3 24 14 11 12 12 11 9 7 7 8 6 8 15 15 18 17 19 20 7 17 14 2 -5 26 8 16 9 17 12
22 47 27 33 29 20 26 -1 24 7 12 12 11 12 6 12 8 7 8 9 5 14 18 21 16 20 18 10 17 16 8 6 5 21 26 18 15 12
43 26 30 28 20 26 1 21 7 11 1 14 16 9 11 10 16 10 8 9 7 13 15 21 13 15 10 13 11 -0 19 15 28 32 9 15 14 20
26 23 31 19 24 2 19 7 6 10 15 19 11 9 9 13 13 17 13 10 8 8 15 20 9 12 4 5 1 6 5 32 17 17 11 12 22 21
20 38 19 22 3 16 5 12 13 19 10 9 9 7 10 10 15 15 19 13 11 11 10 21 3 9 2 5 10 2 15 43 11 15 11 9 21 33
35 23 20 5 15 9 17 15 8 11 8 10 13 20 14 10 11 14 18 16 13 8 8 22 10 1 4 3 11 -3 19 12 22 16 10 15 12 13
25 22 8 12 17 12 9 9 12 12 11 13 13 23 14 14 13 15 16 16 20 6 11 18 18 3 4 5 10 1 18 19 30 12 6 21 20 7
18 11 13 13 7 10 12 10 11 11 13 17 20 14 13 14 10 13 19 18 21 12 14 5 22 11 -0 4 7 -5 13 37 24 8 10 7 8 13
12 14 8 11 12 11 10 10 12 17 22 18 15 12 12 9 8 12 15 21 20 19 8 17 12 18 4 7 1 3 10 26 15 28 14 14 4 6
12 9 14 12 11 12 14 21 27 28 25 15 12 15 16 11 11 12 12 17 19 21 15 12 7 22 14 5 4 4 6 21 20 11 15 8 25 33
14 13 11 11 17 18 28 31 27 21 14 11 14 20 15 5 9 4 8 12 13 29 16 11 20 5 20 4 12 9 4 19 12 4 18 4 5 7
Height
5635 5628 5621 5612 5603 5593 5584 5575 5567 5565 5568 5553 5540 5528 5513 5497 5483 5467 5452 5438 5422 5409 5399 5391 5381 5373 5368 5362 5359 5358 5357 5355 5358 5362 5363 5366 5373 5380
5622 5614 5605 5596 5586 5576 5566 5556 5545 5536 5535 5530 5517 5497 5480 5463 5447 5428 5407 5389 5376 5364 5354 5346 5337 5333 5330 5326 5324 5324 5324 5324 5327 5329 5331 5334 5337 5342
5607 5598 5589 5579 5570 5559 5548 5537 5525 5510 5500 5513 5486 5471 5450 5425 5409 5386 5368 5353 5341 5333 5324 5316 5309 5303 5298 5296 5294 5293 5294 5295 5298 5299 5302 5305 5308 5312
5591 5582 5573 5563 5553 5541 5530 5517 5502 5486 5465 5459 5459 5436 5414 5394 5377 5358 5342 5329 5319 5312 5305 5297 5291 5285 5280 5276 5273 5272 5272 5272 5273 5274 5275 5279 5279 5283
5575 5566 5557 5546 5535 5522 5508 5493 5477 5460 5440 5419 5411 5395 5382 5362 5352 5337 5325 5317 5307 5298 5291 5285 5278 5273 5269 5265 5261 5259 5258 5257 5258 5257 5256 5256 5257 5258
5560 5550 5540 5527 5514 5500 5485 5467 5449 5430 5410 5392 5377 5364 5351 5343 5332 5324 5318 5307 5298 5288 5281 5275 5268 5263 5257 5251 5249 5246 5244 5243 5242 5242 5241 5238 5237 5236
5545 5534 5521 5507 5492 5476 5457 5440 5418 5399 5382 5370 5359 5346 5336 5328 5321 5315 5305 5298 5288 5277 5274 5269 5259 5253 5247 5242 5238 5235 5232 5229 5227 5225 5225 5223 5221 5221
5528 5516 5501 5486 5470 5453 5433 5411 5389 5369 5360 5351 5344 5335 5328 5319 5312 5304 5297 5290 5286 5271 5267 5262 5250 5245 5238 5232 5227 5224 5223 5219 5215 5213 5212 5211 5211 5212
5510 5495 5481 5462 5444 5427 5410 5391 5374 5356 5343 5338 5333 5325 5319 5310 5304 5299 5291 5283 5274 5266 5260 5256 5242 5237 5228 5221 5217 5215 5213 5209 5206 5203 5202 5202 5203 5202
5489 5473 5458 5441 5420 5402 5388 5376 5360 5347 5338 5330 5323 5317 5310 5303 5296 5290 5284 5280 5271 5260 5251 5246 5234 5229 5219 5214 5210 5207 5204 5201 5199 5197 5197 5196 5195 5194
5470 5450 5433 5417 5399 5382 5371 5359 5350 5340 5331 5323 5315 5308 5303 5297 5290 5285 5280 5273 5267 5255 5246 5238 5229 5223 5215 5211 5206 5202 5199 5198 5197 5195 5192 5188 5184 5180
5451 5430 5411 5393 5378 5366 5356 5348 5341 5334 5326 5318 5312 5305 5298 5292 5285 5277 5272 5267 5260 5254 5243 5236 5226 5220 5213 5209 5205 5202 5200 5197 5193 5189 5184 5180 5174 5167
5430 5410 5392 5376 5363 5353 5346 5339 5333 5326 5319 5313 5307 5302 5296 5289 5282 5274 5267 5260 5257 5249 5239 5232 5224 5217 5212 5209 5204 5201 5198 5194 5188 5181 5175 5167 5160 5153
5408 5388 5374 5362 5351 5344 5338 5332 5325 5319 5313 5308 5302 5296 5291 5285 5279 5270 5265 5258 5252 5245 5239 5231 5223 5217 5212 5208 5204 5201 5196 5188 5182 5175 5167 5160 5152 5142
5387 5372 5360 5350 5342 5336 5330 5325 5319 5313 5308 5302 5296 5290 5284 5278 5274 5268 5261 5255 5248 5244 5237 5231 5224 5218 5214 5210 5205 5200 5193 5186 5178 5170 5164 5156 5147 5133
5374 5361 5349 5342 5335 5329 5323 5318 5312 5306 5301 5296 5291 5284 5278 5272 5267 5262 5257 5253 5247 5241 5236 5231 5225 5220 5215 5211 5206 5199 5192 5185 5179 5170 5163 5154 5143 5130
5359 5350 5341 5334 5328 5322 5316 5310 5305 5299 5294 5288 5284 5278 5273 5267 5260 5255 5251 5247 5244 5240 5234 5230 5225 5221 5217 5212 5206 5200 5193 5186 5179 5172 5166 5158 5150 5139
5348 5342 5334 5329 5323 5318 5311 5305 5300 5294 5288 5282 5277 5272 5267 5263 5256 5250 5246 5243 5240 5236 5232 5228 5225 5222 5218 5214 5209 5204 5195 5188 5182 5177 5171 5166 5161 5152
5339 5334 5329 5323 5318 5312 5307 5301 5295 5288 5283 5277 5272 5266 5262 5257 5252 5247 5242 5239 5235 5233 5229 5227 5224 5222 5219 5216 5212 5206 5198 5192 5186 5183 5179 5176 5172 5168
5333 5329 5324 5318 5313 5307 5300 5295 5288 5282 5277 5271 5266 5263 5258 5254 5249 5244 5240 5236 5233 5230 5227 5225 5223 5221 5220 5218 5215 5210 5202 5196 5192 5189 5186 5185 5184 5182
5330 5326 5321 5315 5308 5301 5295 5288 5282 5276 5271 5267 5263 5260 5256 5252 5247 5242 5238 5234 5230 5228 5225 5223 5222 5220 5220 5219 5217 5213 5207 5201 5197 5195 5193 5193 5193 5193
5329 5324 5318 5312 5305 5297 5289 5282 5276 5270 5266 5264 5261 5257 5253 5250 5246 5241 5236 5232 5229 5226 5224 5223 5221 5220 5220 5220 5219 5217 5213 5207 5204 5202 5202 5202 5202 5202
5327 5322 5316 5309 5301 5293 5285 5279 5273 5269 5266 5263 5259 5255 5252 5249 5244 5240 5235 5231 5228 5225 5224 5223 5221 5221 5221 5221 5221 5220 5218 5213 5211 5210 5210 5211 5212 5214